Weather Roundup
Issued by NWS Chicago, IL

Home | Current Version | Previous Version | Graphics & Text | Print | Product List | Glossary On
Versions: 1 2 3 4 5 6 7 8 9 10 11 12 13 14 15 16 17 18 19 20 21 22 23 24 25 26 27 28 29 30 31 32 33 34 35 36 37 38 39 40 41 42 43 44 45 46 47 48 49 50
304
NZUS59 KLOT 030608
HRRLOT

CHICAGO AREA WEATHER ROUNDUP
NATIONAL WEATHER SERVICE CHICAGO/ROMEOVILLE IL
1200 AM CST SAT DEC 03 2016

NOTE: "FAIR" INDICATES FEW OR NO CLOUDS BELOW 12,000 FEET WITH NO
SIGNIFICANT WEATHER AND/OR OBSTRUCTIONS TO VISIBILITY.

* THESE STATIONS ARE NOT UNDER NWS QUALITY CONTROL. THEY ALSO MAY NOT
  REPORT WEATHER SUCH AS PRECIPITATION OR FOG.

ILZ005-006-012>014-019>023-030700-
NORTHEAST ILLINOIS

CITY           SKY/WX    TMP DP  RH WIND       PRES   REMARKS
OHARE          CLOUDY    34  23  64 W7        30.30F WCI  28
6HR MIN TEMP:  34; 6HR MAX TEMP:  37;

MIDWAY         CLOUDY    35  21  56 W8        30.31F WCI  29
6HR MIN TEMP:  35; 6HR MAX TEMP:  38;

AURORA         CLOUDY    33  27  78 NW5       30.32S WCI  29
6HR MIN TEMP:  33; 6HR MAX TEMP:  36;

LANSING*       CLOUDY    34  27  75 W6        30.31S WCI  29
JOLIET*        CLOUDY    35  26  69 NW5       30.33S WCI  31
WAUKEGAN       CLOUDY    33  22  63 W6        30.30F WCI  28
6HR MIN TEMP:  33; 6HR MAX TEMP:  34;

DUPAGE AIRPORT CLOUDY    33  23  66 W7        30.30F WCI  27
6HR MIN TEMP:  33; 6HR MAX TEMP:  36;

WHEELING       CLOUDY    34  23  64 NW6       30.32S WCI  29
6HR MIN TEMP:  34; 6HR MAX TEMP:  36;

KANKAKEE*      CLOUDY    36  27  69 NW5       30.32F
MORRIS*        CLOUDY    34  29  83 CALM      30.32R
LEWIS AIRPORT* CLOUDY    33  28  80 N3        30.32S
NORTHERLY ISL    N/A     35  25  67 SW6         N/A  WCI  30
$$

WIZ051-052-058>065-066-070>072-030700-
SOUTHEAST WISCONSIN

CITY           SKY/WX    TMP DP  RH WIND       PRES   REMARKS
MILWAUKEE      CLOUDY    33  22  63 VRB7      30.31R WCI  27
6HR MIN TEMP:  33; 6HR MAX TEMP:  35;

KENOSHA*       CLOUDY    32  24  72 NW6       30.31S WCI  26
RACINE*        CLOUDY    32  22  66 W6        30.33R WCI  26
BURLINGTON     CLOUDY    32  24  73 CALM      30.30F
WAUKESHA       CLOUDY    30  23  74 W8        30.31S WCI  23
WEST BEND      CLOUDY    32  27  80 W9        30.29S WCI  24
$$

INZ001>003-010>013-019-020-030700-
NORTHWEST INDIANA

CITY           SKY/WX    TMP DP  RH WIND       PRES   REMARKS
GARY*          CLOUDY    37  25  64 W6        30.32S
6HR MIN TEMP:  37; 6HR MAX TEMP:  40;

MICHIGAN CITY* NOT AVBL
RENSSELAER*    NOT AVBL
VALPARAISO     CLOUDY    36  25  64 W10       30.30F
$$

LMZ740>746-030700-
SOUTHERN LAKE MICHIGAN

STATION/POSITION TIME  SKY/WX   TEMP WIND        PRES    VSBY
                                AIR  DIR/SP/G
                 (UTC)          (F)  (DEG/KT/KT) (MB)    (MI)
HARRISON CRIB    0540            36  320/  6/  6   N/A
BURNHAM HARBOR   0600            36  300/  6/  9   N/A
CALUMET HARBOR   0548            35  250/  6/  8 1025.7F
BURNS HARBOR     0540            37  230/  9/ 12 1026.4S
MICHIGAN CITY    0540            37  290/ 13/ 15   N/A
$$

ABBREVIATIONS USED IN REMARKS
   TC - TEMPERATURE IN CELSIUS
  WCI - WIND CHILL INDEX
   HX - HEAT INDEX
  VSB - VISIBILITY
$$




USA.gov is the U.S. government's official web portal to all federal, state and local government web resources and services.